Weather History for PAZK - February, 2013

Change the Weather History Date:

Saturday, February 23, 2013

  Actual Average Record
Temperature  
Mean Temperature 4 °F -  
Max Temperature 6 °F - - ()
Min Temperature 3 °F - - ()
Degree Days  
Heating Degree Days 60    
Moisture  
Dew Point 3 °F    
Average Humidity 91    
Maximum Humidity 100    
Minimum Humidity 79    
Precipitation  
Precipitation 0.00 in - - ()
Sea Level Pressure  
Sea Level Pressure 29.14 in    
Wind  
Wind Speed - (North)    
Max Wind Speed -    
Max Gust Speed -    
Visibility 9 miles    
Events      
T = Trace of Precipitation, MM = Missing Value Source: NWS Daily Summary

Daily Weather History Graph

Daily Weather History Graph

Search for Another Location

Airport or City:

Trip Planner

Search our weather history database for the weather conditions in past years. The results will help you decide how hot, cold, wet, or windy it might be!

Date:

Astronomy

Feb. 23, 2013 Rise Set
Actual Time 8:08 AM AKST 5:56 PM AKST
Civil Twilight 7:23 AM AKST 6:42 PM AKST
Nautical Twilight 6:31 AM AKST 7:33 PM AKST
Astronomical Twilight 5:40 AM AKST 8:25 PM AKST
Moon 4:00 PM AKST (2/23) 6:58 AM AKST (2/23)
Length of Visible Light 11h 19m
Length of Day
9h 48m
Waxing Gibbous, 96% of the Moon is Illuminated
Feb 23
Waxing Gibbous
Feb 25
Full
Mar 4
Last Quarter
Mar 11
New
Mar 19
First Quarter

Hourly Weather History & Observations

Time (AKST) Temp. Dew Point Humidity Pressure Visibility Wind Dir Wind Speed Gust Speed Precip Events Conditions
12:16 AM 6.8 °F 3.2 °F 85% 29.20 in 9.0 mi North - - N/A   Overcast
12:36 AM 6.8 °F 3.2 °F 85% 29.21 in 7.0 mi North - - N/A   Overcast
12:56 AM 6.8 °F 3.2 °F 85% 29.20 in 7.0 mi North - - N/A   Overcast
1:16 AM 6.8 °F 3.2 °F 85% 29.20 in 9.0 mi North - - N/A   Overcast
1:36 AM 6.8 °F 5.0 °F 92% 29.20 in 10.0 mi North - - N/A   Overcast
1:56 AM 6.8 °F 5.0 °F 92% 29.20 in 10.0 mi North - - N/A   Overcast
2:16 AM 6.8 °F 5.0 °F 92% 29.18 in 10.0 mi North - - N/A   Overcast
2:36 AM 6.8 °F 3.2 °F 85% 29.18 in 10.0 mi North - - N/A   Overcast
2:56 AM 6.8 °F 3.2 °F 85% 29.19 in 10.0 mi North - - N/A   Overcast
3:16 AM 6.8 °F 3.2 °F 85% 29.17 in 10.0 mi North - - N/A   Overcast
3:36 AM 5.0 °F 3.2 °F 92% 29.17 in 10.0 mi North - - N/A   Overcast
3:56 AM 5.0 °F 3.2 °F 92% 29.17 in 10.0 mi North - - N/A   Overcast
4:16 AM 5.0 °F 3.2 °F 92% 29.17 in 10.0 mi North - - N/A   Overcast
4:36 AM 5.0 °F 3.2 °F 92% 29.16 in 10.0 mi North - - N/A   Overcast
4:56 AM 3.2 °F 1.4 °F 92% 29.16 in 10.0 mi North - - N/A   Overcast
5:16 AM 3.2 °F 1.4 °F 92% 29.16 in 9.0 mi North - - N/A   Overcast
5:36 AM 3.2 °F 1.4 °F 92% 29.16 in 10.0 mi North - - N/A   Overcast
5:56 AM 3.2 °F 1.4 °F 92% 29.16 in 10.0 mi North - - N/A   Overcast
6:16 AM 3.2 °F 1.4 °F 92% 29.15 in 10.0 mi North - - N/A   Overcast
6:36 AM 3.2 °F 1.4 °F 92% 29.15 in 10.0 mi North - - N/A   Overcast
6:56 AM 3.2 °F 1.4 °F 92% 29.14 in 10.0 mi North - - N/A   Overcast
7:16 AM 3.2 °F 1.4 °F 92% 29.15 in 10.0 mi North - - N/A   Overcast
7:36 AM 3.2 °F 1.4 °F 92% 29.14 in 10.0 mi North - - N/A   Overcast
7:56 AM 3.2 °F 1.4 °F 92% 29.15 in 10.0 mi North - - N/A   Overcast
8:16 AM 3.2 °F 1.4 °F 92% 29.14 in 10.0 mi North - - N/A   Overcast
8:36 AM 3.2 °F 1.4 °F 92% 29.14 in 3.0 mi North - - N/A   Overcast
8:56 AM 3.2 °F 1.4 °F 92% 29.14 in 10.0 mi North - - N/A   Overcast
9:16 AM 3.2 °F 1.4 °F 92% 29.14 in 4.0 mi North - - N/A   Overcast
9:36 AM 3.2 °F 1.4 °F 92% 29.14 in 10.0 mi North - - N/A   Overcast
9:56 AM 3.2 °F 3.2 °F 100% 29.13 in 10.0 mi North - - N/A   Overcast
10:16 AM 3.2 °F 1.4 °F 92% 29.13 in 9.0 mi North - - N/A   Overcast
10:36 AM 3.2 °F 1.4 °F 92% 29.13 in 1.5 mi North - - N/A   Overcast
10:56 AM 3.2 °F 1.4 °F 92% 29.13 in 2.5 mi North - - N/A   Overcast
11:16 AM 3.2 °F 3.2 °F 100% 29.13 in 6.0 mi North - - N/A   Overcast
11:36 AM 3.2 °F 1.4 °F 92% 29.12 in 8.0 mi North - - N/A   Mostly Cloudy
11:56 AM 3.2 °F 1.4 °F 92% 29.12 in 10.0 mi North - - N/A   Partly Cloudy
12:16 PM 3.2 °F 3.2 °F 100% 29.12 in 10.0 mi North - - N/A   Clear
12:36 PM 5.0 °F 3.2 °F 92% 29.11 in 10.0 mi North - - N/A   Clear
12:56 PM 5.0 °F 3.2 °F 92% 29.11 in 10.0 mi North - - N/A   Clear
1:16 PM 6.8 °F 3.2 °F 85% 29.11 in 10.0 mi North - - N/A   Clear
1:36 PM 6.8 °F 6.8 °F 100% 29.10 in 10.0 mi North - - N/A   Clear
1:56 PM 6.8 °F 5.0 °F 92% 29.10 in 10.0 mi North - - N/A   Scattered Clouds
2:16 PM 6.8 °F 3.2 °F 85% 29.09 in 10.0 mi North - - N/A   Mostly Cloudy
2:36 PM 6.8 °F 5.0 °F 92% 29.08 in 10.0 mi North - - N/A   Mostly Cloudy
2:56 PM 6.8 °F 1.4 °F 79% 29.08 in 10.0 mi North - - N/A   Mostly Cloudy
3:16 PM 6.8 °F 3.2 °F 85% 29.08 in 10.0 mi North - - N/A   Mostly Cloudy
3:36 PM 6.8 °F 5.0 °F 92% 29.07 in 7.0 mi North - - N/A   Overcast
3:56 PM 6.8 °F 5.0 °F 92% 29.07 in 5.0 mi North - - N/A   Overcast
4:16 PM 6.8 °F 5.0 °F 92% 29.08 in 7.0 mi North - - N/A   Overcast
4:36 PM 6.8 °F 5.0 °F 92% 29.08 in 9.0 mi North - - N/A   Overcast
4:56 PM 6.8 °F 5.0 °F 92% 29.08 in 8.0 mi North - - N/A   Overcast
5:16 PM 6.8 °F 5.0 °F 92% 29.08 in 9.0 mi North - - N/A   Overcast
5:36 PM 6.8 °F 5.0 °F 92% 29.10 in 8.0 mi North - - N/A   Overcast
5:56 PM 6.8 °F 5.0 °F 92% 29.10 in 5.0 mi North - - N/A   Overcast
6:16 PM 6.8 °F 3.2 °F 85% 29.10 in 8.0 mi North - - N/A   Overcast
6:36 PM 6.8 °F 3.2 °F 85% 29.10 in 9.0 mi North - - N/A   Overcast
6:56 PM 6.8 °F 5.0 °F 92% 29.10 in 10.0 mi North - - N/A   Overcast
7:16 PM 6.8 °F 5.0 °F 92% 29.11 in 9.0 mi North - - N/A   Overcast
7:36 PM 6.8 °F 5.0 °F 92% 29.10 in 10.0 mi North - - N/A   Overcast
7:56 PM 6.8 °F 3.2 °F 85% 29.11 in 10.0 mi North - - N/A   Overcast
8:16 PM 6.8 °F 5.0 °F 92% 29.12 in 10.0 mi North - - N/A   Overcast
8:36 PM 6.8 °F 6.8 °F 100% 29.12 in 10.0 mi North - - N/A   Overcast
8:56 PM 6.8 °F 5.0 °F 92% 29.13 in 10.0 mi North - - N/A   Overcast
9:16 PM 6.8 °F 1.4 °F 79% 29.13 in 10.0 mi North - - N/A   Overcast
9:36 PM 5.0 °F 3.2 °F 92% 29.14 in 10.0 mi North - - N/A   Overcast
9:56 PM 6.8 °F 3.2 °F 85% 29.15 in 10.0 mi North - - N/A   Overcast
10:16 PM 6.8 °F 3.2 °F 85% 29.16 in 10.0 mi North - - N/A   Overcast
10:36 PM 5.0 °F 3.2 °F 92% 29.15 in 10.0 mi North - - N/A   Overcast
10:56 PM 3.2 °F 3.2 °F 100% 29.17 in 10.0 mi North - - N/A   Overcast
11:16 PM 5.0 °F 3.2 °F 92% 29.17 in 10.0 mi North - - N/A   Overcast
11:36 PM 3.2 °F 1.4 °F 92% 29.18 in 10.0 mi North - - N/A   Partly Cloudy
11:56 PM 3.2 °F -0.4 °F 85% 29.18 in 10.0 mi North - - N/A   Clear